Weather History for Monroe, MI

Change the Weather History Date:

Wednesday, February 6, 2013

  Actual Average Record
Temperature  
Mean Temperature 19 °F -  
Max Temperature 30 °F 30 °F 61 °F (1938)
Min Temperature 8 °F 15 °F -4 °F (2014)
Degree Days  
Heating Degree Days 46    
Moisture  
Dew Point 17 °F    
Average Humidity 73    
Maximum Humidity 100    
Minimum Humidity 55    
Precipitation  
Precipitation 0.00 in - - ()
Sea Level Pressure  
Sea Level Pressure 30.20 in    
Wind  
Wind Speed 6 mph (SW)    
Max Wind Speed 14 mph    
Max Gust Speed 18 mph    
Visibility 9 miles    
Events Fog    
Averages and records for this station are not official NWS values.
T = Trace of Precipitation, MM = Missing Value Source: NWS Daily Summary

Daily Weather History Graph

Daily Weather History Graph

Search for Another Location

Airport:

Trip Planner

Search our weather history database for the weather conditions in past years. The results will help you decide how hot, cold, wet, or windy it might be!

Date:

Astronomy

Feb. 06, 2013 Rise Set
Actual Time 7:40 AM EST 5:55 PM EST
Civil Twilight 7:11 AM EST 6:24 PM EST
Nautical Twilight 6:38 AM EST 6:57 PM EST
Astronomical Twilight 6:05 AM EST 7:30 PM EST
Moon 4:25 AM EST (2/6) 2:10 PM EST (2/6)
Length of Visible Light 11h 13m
Length of Day
10h 14m
Waning Crescent, 17% of the Moon is Illuminated
Feb 6
Waning Crescent
Feb 10
New
Feb 17
First Quarter
Feb 25
Full
Mar 4
Last Quarter

Hourly Weather History & Observations

Time (EST) Temp. Windchill Dew Point Humidity Pressure Visibility Wind Dir Wind Speed Gust Speed Precip Events Conditions
12:11 AM 28.4 °F 19.7 °F 28.4 °F 100% 29.94 in 5.0 mi West 9.2 mph - N/A   Overcast
12:32 AM 30.2 °F 21.3 °F 26.6 °F 86% 29.95 in 7.0 mi WNW 10.4 mph 16.1 mph N/A   Overcast
12:52 AM 30.2 °F 21.9 °F 26.6 °F 86% 29.95 in 7.0 mi WNW 9.2 mph - N/A   Overcast
1:12 AM 30.2 °F 21.9 °F 24.8 °F 80% 29.96 in 10.0 mi WNW 9.2 mph - N/A   Overcast
1:32 AM 30.2 °F 20.8 °F 23.0 °F 75% 29.98 in 10.0 mi WNW 11.5 mph - N/A   Overcast
2:12 AM 28.4 °F 18.5 °F 21.2 °F 74% 30.01 in 10.0 mi NW 11.5 mph - N/A   Overcast
2:32 AM 28.4 °F 20.4 °F 21.2 °F 74% 30.02 in 10.0 mi WNW 8.1 mph - N/A   Overcast
2:52 AM 28.4 °F 19.1 °F 21.2 °F 74% 30.04 in 10.0 mi NNW 10.4 mph - N/A   Overcast
3:12 AM 26.6 °F 15.2 °F 19.4 °F 74% 30.04 in 10.0 mi NNW 13.8 mph 18.4 mph N/A   Overcast
3:32 AM 26.6 °F 16.2 °F 19.4 °F 74% 30.06 in 10.0 mi NNW 11.5 mph - N/A   Overcast
3:53 AM 26.6 °F 19.1 °F 19.4 °F 74% 30.07 in 10.0 mi NW 6.9 mph 11.5 mph N/A   Overcast
5:53 AM 21.2 °F 16.4 °F 15.8 °F 80% 30.13 in 10.0 mi NW 3.5 mph - N/A   Clear
6:13 AM 17.6 °F - 14.0 °F 86% 30.14 in 10.0 mi Calm Calm - N/A   Clear
7:54 AM 8.6 °F - 6.8 °F 92% 30.21 in 0.2 mi Calm Calm - N/A Fog Light Freezing Fog
8:14 AM 10.4 °F - 10.4 °F 100% 30.22 in 0.5 mi Calm Calm - N/A Fog Light Freezing Fog
8:34 AM 12.2 °F - 10.4 °F 92% 30.22 in 3.0 mi Calm Calm - N/A   Clear
8:54 AM 15.8 °F - 14.0 °F 93% 30.23 in 7.0 mi Calm Calm - N/A   Clear
9:14 AM 17.6 °F - 15.8 °F 93% 30.23 in 10.0 mi Calm Calm - N/A   Clear
9:34 AM 17.6 °F - 15.8 °F 93% 30.23 in 10.0 mi Calm Calm - N/A   Clear
9:54 AM 19.4 °F - 12.2 °F 74% 30.23 in 10.0 mi Calm Calm - N/A   Clear
10:15 AM 21.2 °F - 12.2 °F 68% 30.24 in 10.0 mi Calm Calm - N/A   Clear
10:35 AM 21.2 °F - 12.2 °F 68% 30.25 in 10.0 mi Calm Calm - N/A   Clear
10:55 AM 24.8 °F - 14.0 °F 64% 30.26 in 10.0 mi Calm Calm - N/A   Clear
11:15 AM 26.6 °F - 14.0 °F 59% 30.26 in 10.0 mi Calm Calm - N/A   Clear
11:35 AM 26.6 °F - 15.8 °F 64% 30.26 in 10.0 mi Calm Calm - N/A   Clear
11:55 AM 26.6 °F - 15.8 °F 64% 30.26 in 10.0 mi Calm Calm - N/A   Clear
12:15 PM 28.4 °F - 15.8 °F 59% 30.25 in 10.0 mi Calm Calm - N/A   Clear
12:35 PM 28.4 °F 24.6 °F 15.8 °F 59% 30.25 in 10.0 mi WSW 3.5 mph - N/A   Clear
12:55 PM 28.4 °F 24.6 °F 15.8 °F 59% 30.25 in 10.0 mi SW 3.5 mph - N/A   Clear
1:15 PM 28.4 °F 23.3 °F 15.8 °F 59% 30.26 in 10.0 mi WSW 4.6 mph - N/A   Clear
1:36 PM 28.4 °F 22.2 °F 15.8 °F 59% 30.26 in 10.0 mi WSW 5.8 mph - N/A   Clear
1:56 PM 28.4 °F 21.2 °F 15.8 °F 59% 30.26 in 10.0 mi WSW 6.9 mph - N/A   Clear
2:11 PM 30.2 °F 24.3 °F 15.8 °F 55% 30.26 in 10.0 mi WSW 5.8 mph - N/A   Clear
2:31 PM 30.2 °F 25.4 °F 15.8 °F 55% 30.25 in 10.0 mi WSW 4.6 mph - N/A   Clear
2:51 PM 30.2 °F 26.7 °F 15.8 °F 55% 30.25 in 10.0 mi SW 3.5 mph - N/A   Clear
3:11 PM 30.2 °F 26.7 °F 15.8 °F 55% 30.24 in 10.0 mi SW 3.5 mph - N/A   Clear
3:31 PM 30.2 °F - 15.8 °F 55% 30.25 in 10.0 mi Calm Calm - N/A   Clear
3:51 PM 30.2 °F 24.3 °F 15.8 °F 55% 30.25 in 10.0 mi South 5.8 mph - N/A   Clear
4:11 PM 28.4 °F 24.6 °F 15.8 °F 59% 30.25 in 10.0 mi South 3.5 mph - N/A   Clear
4:31 PM 28.4 °F 20.4 °F 17.6 °F 64% 30.25 in 10.0 mi SSE 8.1 mph - N/A   Clear
4:52 PM 28.4 °F 19.7 °F 19.4 °F 69% 30.25 in 10.0 mi South 9.2 mph - N/A   Clear
5:12 PM 28.4 °F 21.2 °F 19.4 °F 69% 30.25 in 10.0 mi SSE 6.9 mph - N/A   Clear
5:32 PM 26.6 °F 19.1 °F 19.4 °F 74% 30.26 in 10.0 mi SSE 6.9 mph - N/A   Clear
5:52 PM 26.6 °F 21.2 °F 19.4 °F 74% 30.26 in 10.0 mi SSE 4.6 mph - N/A   Clear
6:12 PM 26.6 °F 22.6 °F 19.4 °F 74% 30.27 in 10.0 mi SSE 3.5 mph - N/A   Clear
6:32 PM 26.6 °F 21.2 °F 17.6 °F 69% 30.27 in 10.0 mi SSE 4.6 mph - N/A   Clear
6:52 PM 24.8 °F - 15.8 °F 69% 30.28 in 10.0 mi Calm Calm - N/A   Clear
7:12 PM 24.8 °F 19.1 °F 15.8 °F 69% 30.28 in 10.0 mi South 4.6 mph - N/A   Clear
7:32 PM 24.8 °F - 15.8 °F 69% 30.28 in 10.0 mi Calm Calm - N/A   Clear
7:53 PM 21.2 °F - 15.8 °F 80% 30.29 in 10.0 mi Calm Calm - N/A   Clear
8:13 PM 21.2 °F - 15.8 °F 80% 30.28 in 10.0 mi Calm Calm - N/A   Clear
8:33 PM 21.2 °F - 15.8 °F 80% 30.28 in 10.0 mi Calm Calm - N/A   Clear
8:53 PM 21.2 °F 16.4 °F 15.8 °F 80% 30.27 in 10.0 mi SE 3.5 mph - N/A   Clear
9:13 PM 24.8 °F - 15.8 °F 69% 30.27 in 10.0 mi Calm Calm - N/A   Clear
9:33 PM 24.8 °F 20.5 °F 17.6 °F 74% 30.25 in 10.0 mi SE 3.5 mph - N/A   Clear
11:13 PM 26.6 °F 20.0 °F 21.2 °F 80% 30.21 in 10.0 mi SE 5.8 mph - N/A   Mostly Cloudy
11:34 PM 26.6 °F 21.2 °F 23.0 °F 86% 30.22 in 10.0 mi SE 4.6 mph - N/A   Overcast
11:54 PM 28.4 °F 23.3 °F 23.0 °F 80% 30.22 in 10.0 mi ESE 4.6 mph - N/A   Overcast